Change the Weather History Date:

Friday, July 13, 2012

  Actual Average Record
Temperature  
Mean Temperature 83 °F 83 °F  
Max Temperature 88 °F 89 °F 94 °F (1985)
Min Temperature 78 °F 78 °F 71 °F (2003)
Degree Days  
Heating Degree Days 0 0  
Month to date heating degree days 0 0  
Since 1 June heating degree days 0 0  
Since 1 July heating degree days 0 0  
Cooling Degree Days 18 18  
Month to date cooling degree days 247 234  
Year to date cooling degree days 3054 2948  
Since 1 June cooling degree days 873 783  
Growing Degree Days 33 (Base 50)    
Moisture  
Dew Point 73 °F    
Average Humidity 71    
Maximum Humidity 79    
Minimum Humidity 63    
Precipitation  
Precipitation 0.17 in 0.17 in 1.60 in (1956)
Month to date precipitation 2.71 2.10  
Year to date precipitation 28.42 25.19  
Sea Level Pressure  
Sea Level Pressure 29.98 in    
Wind  
Wind Speed 6 mph (East)    
Max Wind Speed 20 mph    
Max Gust Speed 23 mph    
Visibility 10 miles    
Events Rain    
T = Trace of Precipitation, MM = Missing Value Source: NWS Daily Summary

Daily Weather History Graph

Daily Weather History Graph

Search for Another Location

Airport or City:

Trip Planner

Search our weather history database for the weather conditions in past years. The results will help you decide how hot, cold, wet, or windy it might be!

Date:

Astronomy

Jul. 13, 2012 Rise Set
Actual Time 5:55 AM AST 7:04 PM AST
Civil Twilight 5:31 AM AST 7:28 PM AST
Nautical Twilight 5:03 AM AST 7:56 PM AST
Astronomical Twilight 4:34 AM AST 8:25 PM AST
Moon 1:20 AM AST (7/13) 2:35 PM AST (7/13)
Length of Visible Light 13h 56m
Length of Day
13h 08m
Waning Crescent, 26% of the Moon is Illuminated
Jul 13
Waning Crescent
Jul 19
New
Jul 26
First Quarter
Aug 1
Full
Aug 9
Last Quarter

Hourly Weather History & Observations

Time (AST) Temp. Heat Index Dew Point Humidity Pressure Visibility Wind Dir Wind Speed Gust Speed Precip Events Conditions
12:56 AM 79.0 °F - 72.0 °F 79% 29.96 in 10.0 mi Calm Calm - N/A   Partly Cloudy
1:56 AM 79.0 °F - 71.1 °F 77% 29.94 in 10.0 mi Calm Calm - N/A   Partly Cloudy
2:56 AM 78.1 °F - 71.1 °F 79% 29.93 in 10.0 mi Calm Calm - N/A   Partly Cloudy
3:56 AM 78.1 °F - 72.0 °F 81% 29.94 in 10.0 mi Calm Calm - N/A   Partly Cloudy
4:56 AM 78.1 °F - 72.0 °F 81% 29.94 in 10.0 mi Calm Calm - N/A   Partly Cloudy
5:56 AM 78.1 °F - 71.1 °F 79% 29.96 in 10.0 mi Calm Calm - N/A   Scattered Clouds
6:56 AM 79.0 °F - 71.1 °F 77% 29.97 in 10.0 mi Calm Calm - N/A   Scattered Clouds
7:56 AM 82.9 °F 88.0 °F 72.0 °F 69% 29.99 in 10.0 mi SE 4.6 mph - N/A   Scattered Clouds
8:56 AM 84.9 °F 91.4 °F 73.0 °F 67% 29.99 in 10.0 mi ENE 9.2 mph - N/A   Scattered Clouds
9:56 AM 86.0 °F 93.8 °F 73.9 °F 67% 29.99 in 10.0 mi ENE 11.5 mph - N/A   Scattered Clouds
10:56 AM 88.0 °F 96.5 °F 73.9 °F 63% 29.99 in 10.0 mi ENE 17.3 mph 23.0 mph N/A   Scattered Clouds
11:56 AM 84.0 °F 89.6 °F 72.0 °F 67% 29.98 in 10.0 mi ENE 15.0 mph 23.0 mph 0.00 in   Scattered Clouds
12:56 PM 82.9 °F 88.8 °F 73.0 °F 72% 29.98 in 10.0 mi ENE 15.0 mph - 0.00 in   Scattered Clouds
1:56 PM 81.0 °F 85.8 °F 73.0 °F 77% 29.97 in 10.0 mi Calm Calm - 0.10 in Rain Light Rain
2:56 PM 84.0 °F 90.2 °F 73.0 °F 69% 29.98 in 10.0 mi East 11.5 mph - 0.00 in   Scattered Clouds
3:56 PM 82.9 °F 89.4 °F 73.9 °F 74% 29.97 in 10.0 mi ENE 8.1 mph - 0.07 in   Scattered Clouds
4:56 PM 82.9 °F 88.8 °F 73.0 °F 72% 29.96 in 10.0 mi East 8.1 mph - N/A   Scattered Clouds
5:56 PM 84.0 °F 90.2 °F 73.0 °F 69% 29.97 in 10.0 mi East 10.4 mph - N/A   Scattered Clouds
6:56 PM 82.0 °F 87.4 °F 73.0 °F 74% 29.98 in 10.0 mi East 8.1 mph - N/A   Scattered Clouds
7:56 PM 82.0 °F 87.4 °F 73.0 °F 74% 29.99 in 10.0 mi East 6.9 mph - N/A   Partly Cloudy
8:56 PM 81.0 °F 85.2 °F 72.0 °F 74% 30.01 in 10.0 mi SE 5.8 mph - N/A   Partly Cloudy
9:56 PM 81.0 °F 85.8 °F 73.0 °F 77% 30.03 in 10.0 mi ESE 4.6 mph - N/A   Scattered Clouds
10:56 PM 80.1 °F 84.2 °F 73.0 °F 79% 30.04 in 10.0 mi ESE 5.8 mph - N/A   Scattered Clouds
11:56 PM 80.1 °F 84.2 °F 73.0 °F 79% 30.03 in 10.0 mi Calm Calm - N/A   Scattered Clouds